User: anonymous   Login
Location: *
(50.8512°N, 5.6907°E)
Time: 11:39:30
(UTC+00:00)
Language:

BREEZE M DEB (TANK) - Orbit

View from above orbital plane
View from above orbital plane
View from above satellite
View from above satellite

Ground track
Ground track

The orbit data is extracted from the following two-line orbital elements,

1 28359U 04022B   20190.59699384 +.00001227 +00000-0 +19729-3 0  9993
2 28359 049.5256 004.4577 4641098 104.5850 309.8263 06.23654982354820
Epoch (UTC): 08 July 2020 14:19:40
Eccentricity: 0.4641098
inclination: 49.5256°
perigee height: 303 km
apogee height: 11875 km
right ascension of ascending node: 4.4577°
argument of perigee: 104.5850°
revolutions per day: 6.23654982
mean anomaly at epoch: 309.8263°
orbit number at epoch: 35482

The dashed part of the orbit path shows where the satellite is in the earth's shadow,  

DLR